Flag for Netherlands Weather past 2 weeks in Breda, Netherlands

Now
45 °F

Partly sunny.


Feels Like: 37 °F
Forecast: 37 / 47 °F
Wind: 17 mph from Northwest

Location: Gilze-Rijen

Current Time: Mar 4, 2015 at 6:07:11 PM

Latest Report: Mar 4, 2015 at 5:25 PM


Visibility: N/A

Pressure: 30.36 "Hg

Humidity: 66%

Dew point: 34 °F

Location of BredaLocation

Historic Weather in Breda — Graph

°F

Breda temperature yesterday

Maximum temperature yesterday: 46 °F (at 3:25 PM)
Minimum temperature yesterday: 36 °F (at 5:25 AM)
Average temperature yesterday: 40 °F

Past Weeks' High & Low Weather Summary

 TemperatureHumidityPressure
High52 °F (Mar 1, 12:25 PM)100% (Feb 17, 8:55 PM)30.74 "Hg (Feb 17, 8:55 PM)
Low25 °F (Feb 18, 1:25 AM)49% (Mar 2, 5:25 PM)29.30 "Hg (Feb 23, 6:59 AM)
Average40 °F85%29.89 "Hg
* Reported Feb 17 4:25 PM — Mar 4 4:55 PM, Breda, Weather by CustomWeather, © 2015

Note: Actual official high and low records may vary slightly from our data, if they occured in-between our weather recording intervals... More about our weather records

Advertising

Breda weather history for previous 24 hours

 ConditionsComfort  
Time TempWeatherWind HumidityBarometerVisibility
4:55 PM
Wed, Mar 4
45 °FPartly sunny.21 mph71%30.33 "HgN/A
4:25 PM45 °FBroken clouds.20 mph71%30.33 "HgN/A
3:55 PM45 °FBroken clouds.20 mph66%30.30 "HgN/A
3:25 PM45 °FBroken clouds.20 mph66%30.30 "HgN/A
2:55 PM45 °FMore clouds than sun.16 mph71%30.30 "HgN/A
2:25 PM43 °FMostly cloudy.17 mph76%30.30 "HgN/A
2:00 PM43 °FBroken clouds.16 mph76%30.27 "HgN/A
1:55 PM43 °FBroken clouds.16 mph76%30.27 "HgN/A
1:25 PM43 °FMostly cloudy.16 mph76%30.27 "HgN/A
12:55 PM45 °FBroken clouds.16 mph71%30.27 "HgN/A
12:25 PM45 °FCloudy.17 mph71%30.24 "HgN/A
11:55 AM43 °FPartly sunny.14 mph76%30.24 "HgN/A
11:25 AM43 °FCloudy.18 mph76%30.24 "HgN/A
10:55 AM43 °FMostly cloudy.16 mph76%30.24 "HgN/A
10:25 AM43 °FMostly cloudy.14 mph76%30.21 "HgN/A
9:55 AM43 °FPartly sunny.12 mph76%30.21 "HgN/A
9:25 AM41 °FScattered clouds.10 mph81%30.21 "HgN/A
8:55 AM39 °FOvercast.10 mph81%30.18 "HgN/A
8:25 AM37 °FScattered clouds.9 mph87%30.18 "HgN/A
7:55 AM36 °FPartly sunny.7 mph87%30.18 "HgN/A
7:25 AM36 °FPassing clouds.6 mph87%30.15 "HgN/A
6:55 AM36 °FPassing clouds.7 mph87%30.15 "HgN/A
6:25 AM36 °FPassing clouds.8 mph87%30.15 "HgN/A
5:55 AM36 °FPassing clouds.8 mph87%30.15 "HgN/A
5:25 AM36 °FPassing clouds.7 mph87%30.12 "HgN/A
4:55 AM36 °FPassing clouds.8 mph87%30.12 "HgN/A
4:25 AM36 °FPassing clouds.8 mph87%30.12 "HgN/A
3:55 AM36 °FPassing clouds.8 mph87%30.12 "HgN/A
3:25 AM36 °FPassing clouds.7 mph87%30.12 "HgN/A
2:55 AM36 °FPassing clouds.7 mph93%30.12 "HgN/A
2:25 AM36 °FPassing clouds.7 mph93%30.12 "HgN/A
1:55 AM36 °FPassing clouds.6 mph93%30.12 "HgN/A
1:25 AM37 °FPassing clouds.7 mph87%30.09 "HgN/A
12:55 AM37 °FPassing clouds.6 mph87%30.09 "HgN/A
12:25 AM37 °FPassing clouds.6 mph87%30.09 "HgN/A
11:55 PM
Tue, Mar 3
37 °FOvercast.7 mph87%30.09 "HgN/A
11:25 PM37 °FPassing clouds.6 mph87%30.07 "HgN/A
10:55 PM39 °FPassing clouds.7 mph81%30.07 "HgN/A
10:25 PM39 °FPassing clouds.7 mph81%30.07 "HgN/A
9:55 PM39 °FPassing clouds.6 mph81%30.07 "HgN/A
9:25 PM41 °FPartly cloudy.7 mph76%30.04 "HgN/A
8:55 PM39 °FOvercast.5 mph81%30.04 "HgN/A
8:25 PM39 °FPassing clouds.5 mph81%30.01 "HgN/A
7:55 PM41 °FOvercast.3 mph81%30.01 "HgN/A
7:25 PM41 °FOvercast.5 mph81%30.01 "HgN/A
6:55 PM43 °FOvercast.7 mph76%29.98 "HgN/A
6:25 PM43 °FPartly cloudy.6 mph76%29.98 "HgN/A
Weather by CustomWeather, © 2015

See weather overviewHow to use our weather pages